Location: Forst
(46.9333°N, 15.4333°E)
Time: 14:34:05
(UTC+00:00)

Meteor 1-27 Rocket - Pass Details

Date: 01 December 2020
Orbit: 830 x 909 km, 81.3° (Epoch: 26 January)

Event Time Altitude Azimuth Distance (km) Brightness Sun altitude
Rises 18:14:13 0° 196° (SSW) 3,363 7.0 -30.5°
Reaches altitude 10° 18:16:37 10° 199° (SSW) 2,437 6.3 -30.9°
Enters shadow 18:20:33 47° 217° (SW) 1,105 4.4 -31.5°
